Location: Chena
(64.8152°N, 147.9227°W)
Time: 14:13:14
(UTC+00:00)

N. Korean satellite - Pass Details

Date: 31 January 2021
Orbit: 451 x 503 km, 97.2° (Epoch: 28 February)

Event Time Altitude Azimuth Distance (km) Brightness Sun altitude
Rises 16:05:14 0° 17° (NNE) 2,518 10.3 -15.5°
Reaches altitude 10° 16:07:18 10° 16° (NNE) 1,630 9.3 -15.3°
Maximum altitude 16:10:47 77° 292° (WNW) 481 6.3 -14.9°
Drops below altitude 10° 16:14:13 10° 205° (SSW) 1,599 9.0 -14.6°
Sets 16:16:14 0° 204° (SSW) 2,464 10.0 -14.4°
